Location: Biberach+an+der+Riss
(48.0937°N, 9.7888°E)
Time: 09:05:06
(UTC+01:00)

ISS - Visible Passes

Search period start: 17 February 2019 00:00
Search period end: 27 February 2019 00:00
Orbit: 403 x 411 km, 51.6° (Epoch: 17 February)

Date Brightness Start Highest point End Pass type
(mag) Time Alt. Az. Time Alt. Az. Time Alt. Az.
21 Feb -0.3 06:42:24 10° SE 06:42:54 10° SE 06:43:25 10° SE visible
23 Feb -1.3 06:33:34 10° SSW 06:36:07 21° SE 06:38:42 10° E visible
24 Feb -0.9 05:43:13 10° SSE 05:44:51 13° SE 05:46:28 10° ESE visible
25 Feb -2.7 06:26:19 10° SW 06:29:25 42° SSE 06:32:33 10° ENE visible
26 Feb -1.9 05:35:45 13° SSW 05:38:02 26° SE 05:40:50 10° E visible
